User: anonymous   Login
Location: Unspecified
(0.0000°N, 0.0000°E)
Time: 15:24:17
(UTC+00:00)
Language:

MetOp-B - Orbit

View from above orbital plane
View from above orbital plane
View from above satellite
View from above satellite

Ground track
Ground track

The orbit data is extracted from the following two-line orbital elements,

1 38771U 12049A   18051.92471066 -.00000013 +00000-0 +14076-4 0  9999
2 38771 098.6887 113.2878 0000416 182.8689 149.5076 14.21495730281613
Epoch (UTC): 20 February 2018 22:11:35
Eccentricity: 0.0000416
inclination: 98.6887°
perigee height: 820 km
apogee height: 820 km
right ascension of ascending node: 113.2878°
argument of perigee: 182.8689°
revolutions per day: 14.21495730
mean anomaly at epoch: 149.5076°
orbit number at epoch: 28161

The dashed part of the orbit path shows where the satellite is in the earth's shadow,  

DLR